EIN40R EIDW-LIRF

Flight info

Callsign EIN40R
Flight time 2h 38m
Altitude 35000
Route N0444F350 PESIT2J PESIT DCT BAKUR DCT GUBJE DCT DAVAZ DCT AVZAC DCT ICOSA DCT RUHUN DCT UNZIB DCT NUCHU DCT BOGNA UL612 OGULO DCT OKASI DCT OKEKO DCT MOU DCT MADIV DCT MOKIP DCT TUFTA DCT KOGAS DCT MEDAM DCT NITAM DCT MOGBO DCT ELB/N0431F360 DCT ELKAP
Aircraft A320/M-SDE3FGHIRWY/LB1

Departure

Time 2026-02-21 04:47
Airport Dublin Airport (EIDW)

Arrival

Time 2026-02-21 07:25
Airport Rome–Fiumicino Leonardo da Vinci International Airport (LIRF)
Time Latitude Longitude Altitude Speed Heading
2026-02-21 04:20 53.42663 -6.24701 211 ft 0 kts 147°
2026-02-21 04:35 53.42673 -6.24712 217 ft 2 kts 147°
2026-02-21 04:36 53.42688 -6.24727 215 ft 2 kts 147°
2026-02-21 04:36 53.42702 -6.24743 217 ft 2 kts 147°
2026-02-21 04:36 53.42715 -6.24756 211 ft 0 kts 147°
2026-02-21 04:39 53.42704 -6.24745 215 ft 5 kts 147°
2026-02-21 04:39 53.42690 -6.24746 217 ft 1 kts 240°
2026-02-21 04:39 53.42692 -6.24754 211 ft 1 kts 269°
2026-02-21 04:39 53.42692 -6.24759 211 ft 0 kts 269°
2026-02-21 04:40 53.42675 -6.24827 214 ft 11 kts 231°
2026-02-21 04:40 53.42687 -6.24946 215 ft 11 kts 311°
2026-02-21 04:40 53.42753 -6.25017 212 ft 11 kts 330°
2026-02-21 04:40 53.42794 -6.25109 213 ft 10 kts 296°
2026-02-21 04:41 53.42850 -6.25179 217 ft 10 kts 330°
2026-02-21 04:41 53.42908 -6.25217 214 ft 8 kts 339°
2026-02-21 04:41 53.42955 -6.25247 219 ft 6 kts 336°
2026-02-21 04:41 53.42992 -6.25277 215 ft 8 kts 333°
2026-02-21 04:42 53.43082 -6.25352 212 ft 16 kts 334°
2026-02-21 04:42 53.43192 -6.25399 215 ft 16 kts
2026-02-21 04:42 53.43231 -6.25265 211 ft 13 kts 94°
2026-02-21 04:42 53.43225 -6.25123 213 ft 11 kts 94°
2026-02-21 04:43 53.43217 -6.25001 215 ft 10 kts 95°
2026-02-21 04:43 53.43210 -6.24897 211 ft 8 kts 94°
2026-02-21 04:43 53.43207 -6.24812 211 ft 7 kts 94°
2026-02-21 04:43 53.43204 -6.24741 211 ft 7 kts 95°
2026-02-21 04:44 53.43194 -6.24601 211 ft 12 kts 96°
2026-02-21 04:44 53.43185 -6.24466 214 ft 11 kts 96°
2026-02-21 04:44 53.43239 -6.24413 214 ft 14 kts
2026-02-21 04:44 53.43336 -6.24357 211 ft 14 kts 56°
2026-02-21 04:45 53.43330 -6.24223 219 ft 11 kts 93°
2026-02-21 04:45 53.43326 -6.24108 211 ft 9 kts 93°
2026-02-21 04:45 53.43323 -6.24011 211 ft 8 kts 93°
2026-02-21 04:45 53.43320 -6.23929 211 ft 7 kts 93°
2026-02-21 04:46 53.43360 -6.23857 211 ft 12 kts
2026-02-21 04:46 53.43443 -6.23845 217 ft 12 kts
2026-02-21 04:46 53.43489 -6.23925 217 ft 11 kts 277°
2026-02-21 04:47 53.43538 -6.24861 212 ft 98 kts 275°
2026-02-21 04:47 53.43618 -6.26320 217 ft 151 kts 275°
2026-02-21 04:47 53.43739 -6.28216 552 ft 167 kts 274°
2026-02-21 04:47 53.43937 -6.29863 1115 ft 174 kts 287°
2026-02-21 04:48 53.44697 -6.31551 1813 ft 188 kts 304°
2026-02-21 04:48 53.45561 -6.33182 2510 ft 185 kts 296°
2026-02-21 04:48 53.46330 -6.34903 3244 ft 184 kts 296°
2026-02-21 04:48 53.47119 -6.36694 3597 ft 201 kts 295°
2026-02-21 04:49 53.47979 -6.38724 3900 ft 225 kts 296°
2026-02-21 04:49 53.48917 -6.40934 4498 ft 237 kts 297°
2026-02-21 04:49 53.49885 -6.43188 5338 ft 239 kts 298°
2026-02-21 04:49 53.50786 -6.45520 6187 ft 235 kts 285°
2026-02-21 04:50 53.50937 -6.48140 6929 ft 231 kts 257°
2026-02-21 04:50 53.50226 -6.50560 7686 ft 239 kts 232°
2026-02-21 04:50 53.48798 -6.52103 8424 ft 258 kts 203°
2026-02-21 04:50 53.46930 -6.52146 9141 ft 282 kts 178°
2026-02-21 04:51 53.44988 -6.51424 9881 ft 289 kts 175°
2026-02-21 04:51 53.42999 -6.50580 10290 ft 305 kts 174°
2026-02-21 04:51 53.40864 -6.49654 10460 ft 329 kts 173°
2026-02-21 04:51 53.38584 -6.48662 10749 ft 345 kts 173°
2026-02-21 04:52 53.36234 -6.47641 11343 ft 351 kts 173°
2026-02-21 04:52 53.33850 -6.46615 12009 ft 355 kts 173°
2026-02-21 04:52 53.31454 -6.45523 12691 ft 362 kts 168°
2026-02-21 04:52 53.29105 -6.43837 13349 ft 370 kts 162°
2026-02-21 04:53 53.26762 -6.42016 13971 ft 374 kts 162°
2026-02-21 04:53 53.24394 -6.40173 14549 ft 377 kts 162°
2026-02-21 04:53 53.22004 -6.38317 15144 ft 379 kts 162°
2026-02-21 04:53 53.19602 -6.36454 15712 ft 383 kts 163°
2026-02-21 04:54 53.17172 -6.34575 16273 ft 386 kts 163°
2026-02-21 04:54 53.14725 -6.32689 16866 ft 390 kts 163°
2026-02-21 04:54 53.12254 -6.30788 17433 ft 392 kts 163°
2026-02-21 04:54 53.09798 -6.28899 17996 ft 395 kts 163°
2026-02-21 04:55 53.07261 -6.26950 18514 ft 399 kts 163°
2026-02-21 04:55 53.04763 -6.25035 19016 ft 402 kts 163°
2026-02-21 04:55 53.02212 -6.23081 19524 ft 404 kts 163°
2026-02-21 04:55 52.99648 -6.21121 20019 ft 407 kts 163°
2026-02-21 04:56 52.97066 -6.19150 20515 ft 410 kts 163°
2026-02-21 04:56 52.94464 -6.17164 21007 ft 413 kts 163°
2026-02-21 04:56 52.91849 -6.15161 21494 ft 415 kts 163°
2026-02-21 04:56 52.89222 -6.13137 21973 ft 418 kts 163°
2026-02-21 04:57 52.86581 -6.11100 22440 ft 420 kts 163°
2026-02-21 04:57 52.83922 -6.09053 22889 ft 422 kts 163°
2026-02-21 04:57 52.81249 -6.07002 23331 ft 425 kts 163°
2026-02-21 04:57 52.78560 -6.04944 23731 ft 427 kts 163°
2026-02-21 04:58 52.75853 -6.02879 24085 ft 429 kts 162°
2026-02-21 04:58 52.73137 -6.00809 24437 ft 431 kts 162°
2026-02-21 04:58 52.70406 -5.98725 24779 ft 433 kts 162°
2026-02-21 04:58 52.67666 -5.96636 25118 ft 435 kts 162°
2026-02-21 04:59 52.64947 -5.94565 25432 ft 437 kts 162°
2026-02-21 04:59 52.62184 -5.92463 25756 ft 439 kts 162°
2026-02-21 04:59 52.59404 -5.90355 26079 ft 441 kts 162°
2026-02-21 04:59 52.56613 -5.88246 26393 ft 442 kts 162°
2026-02-21 05:00 52.53813 -5.86134 26700 ft 444 kts 162°
2026-02-21 05:00 52.50991 -5.84008 27005 ft 446 kts 162°
2026-02-21 05:00 52.48164 -5.81883 27303 ft 448 kts 162°
2026-02-21 05:00 52.45323 -5.79756 27609 ft 450 kts 162°
2026-02-21 05:01 52.42468 -5.77618 27881 ft 452 kts 162°
2026-02-21 05:01 52.39584 -5.75588 28157 ft 449 kts 168°
2026-02-21 05:01 52.36616 -5.74073 28425 ft 447 kts 171°
2026-02-21 05:01 52.33634 -5.72622 28683 ft 449 kts 171°
2026-02-21 05:02 52.30632 -5.71167 28935 ft 450 kts 171°
2026-02-21 05:02 52.27619 -5.69711 29190 ft 452 kts 171°
2026-02-21 05:02 52.24597 -5.68234 29425 ft 455 kts 168°
2026-02-21 05:02 52.21620 -5.66337 29652 ft 461 kts 165°
2026-02-21 05:03 52.18655 -5.64328 29857 ft 463 kts 164°
2026-02-21 05:03 52.15670 -5.62309 30056 ft 465 kts 165°
2026-02-21 05:03 52.12720 -5.60318 30277 ft 465 kts 165°
2026-02-21 05:03 52.09732 -5.58306 30531 ft 464 kts 165°
2026-02-21 05:04 52.06744 -5.56296 30768 ft 464 kts 165°
2026-02-21 05:04 52.03760 -5.54292 30996 ft 464 kts 165°
2026-02-21 05:04 52.00778 -5.52237 31224 ft 465 kts 164°
2026-02-21 05:04 51.97811 -5.50119 31446 ft 466 kts 163°
2026-02-21 05:05 51.94848 -5.47945 31678 ft 468 kts 161°
2026-02-21 05:05 51.92014 -5.45263 31889 ft 478 kts 151°
2026-02-21 05:05 51.89423 -5.41811 32101 ft 487 kts 141°
2026-02-21 05:05 51.87168 -5.37660 32310 ft 496 kts 131°
2026-02-21 05:06 51.85344 -5.32878 32526 ft 503 kts 120°
2026-02-21 05:06 51.83856 -5.27739 32730 ft 505 kts 118°
2026-02-21 05:06 51.82376 -5.22599 32940 ft 505 kts 119°
2026-02-21 05:06 51.80884 -5.17454 33156 ft 505 kts 119°
2026-02-21 05:07 51.79391 -5.12328 33373 ft 505 kts 119°
2026-02-21 05:07 51.78030 -5.07069 33593 ft 509 kts 111°
2026-02-21 05:07 51.77102 -5.01552 33812 ft 511 kts 103°
2026-02-21 05:07 51.76441 -4.95912 34038 ft 512 kts 102°
2026-02-21 05:08 51.75780 -4.90271 34243 ft 512 kts 102°
2026-02-21 05:08 51.75112 -4.84623 34435 ft 512 kts 103°
2026-02-21 05:08 51.74440 -4.78995 34633 ft 511 kts 103°
2026-02-21 05:08 51.73762 -4.73362 34837 ft 511 kts 103°
2026-02-21 05:09 51.73082 -4.67740 35036 ft 511 kts 103°
2026-02-21 05:09 51.72457 -4.62587 35129 ft 511 kts 103°
2026-02-21 05:09 51.71086 -4.51354 35165 ft 510 kts 103°
2026-02-21 05:10 51.69706 -4.40145 35157 ft 509 kts 103°
2026-02-21 05:10 51.68322 -4.29026 35164 ft 509 kts 103°
2026-02-21 05:11 51.66925 -4.17852 35156 ft 508 kts 103°
2026-02-21 05:11 51.65528 -4.06694 35163 ft 508 kts 102°
2026-02-21 05:12 51.64116 -3.95561 35155 ft 507 kts 103°
2026-02-21 05:12 51.62683 -3.84455 35162 ft 506 kts 103°
2026-02-21 05:13 51.61244 -3.73364 35161 ft 505 kts 102°
2026-02-21 05:13 51.59806 -3.62303 35170 ft 505 kts 102°
2026-02-21 05:14 51.58964 -3.51106 35170 ft 504 kts 95°
2026-02-21 05:14 51.58318 -3.39864 35170 ft 505 kts 95°
2026-02-21 05:15 51.57660 -3.28719 35163 ft 504 kts 95°
2026-02-21 05:15 51.56977 -3.17454 35169 ft 505 kts 95°
2026-02-21 05:16 51.56632 -3.11833 35057 ft 505 kts 95°
2026-02-21 05:16 51.56283 -3.06197 35037 ft 505 kts 95°
2026-02-21 05:16 51.55590 -2.95049 35031 ft 505 kts 95°
2026-02-21 05:17 51.54876 -2.83819 35158 ft 505 kts 95°
2026-02-21 05:17 51.54192 -2.73109 35159 ft 505 kts 95°
2026-02-21 05:18 51.53466 -2.61890 35151 ft 505 kts 95°
2026-02-21 05:18 51.52720 -2.50665 35151 ft 505 kts 96°
2026-02-21 05:19 51.51967 -2.39440 35145 ft 505 kts 96°
2026-02-21 05:19 51.51199 -2.28231 35143 ft 505 kts 96°
2026-02-21 05:20 51.50428 -2.17077 35133 ft 505 kts 95°
2026-02-21 05:20 51.49652 -2.05876 35138 ft 505 kts 95°
2026-02-21 05:21 51.48861 -1.94658 35129 ft 505 kts 95°
2026-02-21 05:21 51.48057 -1.83458 35128 ft 505 kts 95°
2026-02-21 05:22 51.46835 -1.72452 35126 ft 505 kts 108°
2026-02-21 05:22 51.43866 -1.62325 35136 ft 501 kts 126°
2026-02-21 05:23 51.39539 -1.53651 35142 ft 498 kts 133°
2026-02-21 05:23 51.35067 -1.45182 35144 ft 499 kts 133°
2026-02-21 05:24 51.32820 -1.40919 35024 ft 499 kts 131°
2026-02-21 05:24 51.30579 -1.36671 35175 ft 501 kts 130°
2026-02-21 05:24 51.26026 -1.28080 35171 ft 512 kts 130°
2026-02-21 05:25 51.22166 -1.20832 35152 ft 516 kts 130°
2026-02-21 05:25 51.16743 -1.10682 35143 ft 518 kts 130°
2026-02-21 05:26 51.12059 -1.01958 35144 ft 518 kts 130°
2026-02-21 05:27 51.06104 -0.90894 35156 ft 518 kts 130°
2026-02-21 05:27 51.01410 -0.82195 35162 ft 518 kts 130°
2026-02-21 05:28 50.96700 -0.73509 35174 ft 518 kts 130°
2026-02-21 05:28 50.92031 -0.64911 35184 ft 518 kts 130°
2026-02-21 05:29 50.87319 -0.56273 35184 ft 518 kts 130°
2026-02-21 05:29 50.82596 -0.47649 35191 ft 518 kts 130°
2026-02-21 05:30 50.77857 -0.39032 35190 ft 518 kts 130°
2026-02-21 05:30 50.73114 -0.30439 35199 ft 519 kts 131°
2026-02-21 05:31 50.67887 -0.22759 35194 ft 516 kts 147°
2026-02-21 05:31 50.61918 -0.16494 35200 ft 515 kts 149°
2026-02-21 05:32 50.55940 -0.10237 35204 ft 515 kts 148°
2026-02-21 05:32 50.49955 -0.03981 35213 ft 515 kts 148°
2026-02-21 05:33 50.44004 0.02204 35215 ft 515 kts 149°
2026-02-21 05:33 50.38023 0.08385 35217 ft 515 kts 149°
2026-02-21 05:34 50.32037 0.14564 35231 ft 515 kts 149°
2026-02-21 05:34 50.26048 0.20723 35228 ft 515 kts 149°
2026-02-21 05:35 50.20058 0.26866 35239 ft 515 kts 149°
2026-02-21 05:35 50.14106 0.32989 35239 ft 515 kts 149°
2026-02-21 05:36 50.08116 0.39144 35237 ft 514 kts 149°
2026-02-21 05:36 50.02129 0.45265 35256 ft 514 kts 149°
2026-02-21 05:37 49.96136 0.51365 35251 ft 514 kts 149°
2026-02-21 05:37 49.90143 0.57446 35256 ft 514 kts 149°
2026-02-21 05:38 49.84289 0.63715 35253 ft 516 kts 141°
2026-02-21 05:38 49.78722 0.70768 35256 ft 516 kts 142°
2026-02-21 05:39 49.73151 0.77768 35269 ft 516 kts 142°
2026-02-21 05:39 49.67564 0.84756 35269 ft 516 kts 142°
2026-02-21 05:40 49.61998 0.91694 35280 ft 516 kts 142°
2026-02-21 05:40 49.56418 0.98642 35279 ft 516 kts 142°
2026-02-21 05:41 49.50826 1.05592 35278 ft 515 kts 142°
2026-02-21 05:41 49.45229 1.12504 35276 ft 515 kts 142°
2026-02-21 05:42 49.39634 1.19392 35276 ft 515 kts 142°
2026-02-21 05:42 49.34079 1.26229 35271 ft 515 kts 142°
2026-02-21 05:43 49.28487 1.33099 35274 ft 515 kts 142°
2026-02-21 05:43 49.22886 1.39954 35276 ft 514 kts 142°
2026-02-21 05:44 49.17286 1.46779 35289 ft 514 kts 142°
2026-02-21 05:44 49.11686 1.53596 35293 ft 514 kts 142°
2026-02-21 05:45 49.06118 1.60357 35287 ft 514 kts 142°
2026-02-21 05:45 49.00508 1.67128 35274 ft 514 kts 142°
2026-02-21 05:46 48.94884 1.73890 35276 ft 514 kts 142°
2026-02-21 05:46 48.89269 1.80628 35289 ft 514 kts 142°
2026-02-21 05:47 48.83661 1.87356 35290 ft 514 kts 142°
2026-02-21 05:47 48.78032 1.94084 35294 ft 514 kts 142°
2026-02-21 05:48 48.72826 2.00285 35295 ft 514 kts 142°
2026-02-21 05:48 48.67199 2.06963 35293 ft 514 kts 142°
2026-02-21 05:49 48.61564 2.13631 35293 ft 514 kts 142°
2026-02-21 05:49 48.56016 2.20471 35291 ft 514 kts 135°
2026-02-21 05:50 48.50994 2.28139 35295 ft 513 kts 134°
2026-02-21 05:50 48.45993 2.35737 35309 ft 513 kts 134°
2026-02-21 05:51 48.40936 2.43368 35311 ft 513 kts 134°
2026-02-21 05:51 48.35870 2.50970 35311 ft 513 kts 134°
2026-02-21 05:52 48.30793 2.58527 35312 ft 514 kts 137°
2026-02-21 05:52 48.25011 2.64668 35306 ft 512 kts 154°
2026-02-21 05:52 48.21798 2.66952 35309 ft 511 kts 157°
2026-02-21 05:53 48.15444 2.71747 35308 ft 512 kts 153°
2026-02-21 05:53 48.09204 2.76941 35313 ft 513 kts 153°
2026-02-21 05:54 48.02743 2.81416 35317 ft 511 kts 159°
2026-02-21 05:54 47.96190 2.85588 35321 ft 511 kts 159°
2026-02-21 05:55 47.89626 2.89676 35323 ft 511 kts 159°
2026-02-21 05:55 47.83098 2.93775 35329 ft 512 kts 159°
2026-02-21 05:56 47.76545 2.97931 35334 ft 512 kts 159°
2026-02-21 05:56 47.69992 3.02066 35338 ft 512 kts 159°
2026-02-21 05:57 47.63429 3.06179 35342 ft 512 kts 159°
2026-02-21 05:57 47.56906 3.10254 35347 ft 511 kts 159°
2026-02-21 05:58 47.50344 3.14346 35353 ft 511 kts 159°
2026-02-21 05:58 47.43784 3.18430 35359 ft 511 kts 159°
2026-02-21 05:59 47.37216 3.22506 35365 ft 511 kts 159°
2026-02-21 05:59 47.30648 3.26567 35360 ft 511 kts 159°
2026-02-21 06:00 47.24113 3.30597 35367 ft 511 kts 159°
2026-02-21 06:00 47.17552 3.34631 35370 ft 511 kts 159°
2026-02-21 06:01 47.10988 3.38659 35376 ft 510 kts 159°
2026-02-21 06:01 47.04442 3.42664 35380 ft 510 kts 159°
2026-02-21 06:02 46.97896 3.46667 35383 ft 510 kts 159°
2026-02-21 06:02 46.91346 3.50648 35387 ft 509 kts 159°
2026-02-21 06:03 46.84799 3.54622 35385 ft 509 kts 159°
2026-02-21 06:03 46.78336 3.58858 35385 ft 510 kts 149°
2026-02-21 06:04 46.72919 3.65326 35394 ft 506 kts 128°
2026-02-21 06:04 46.70792 3.69462 35397 ft 501 kts 117°
2026-02-21 06:04 46.69197 3.73862 35396 ft 495 kts 107°
2026-02-21 06:05 46.67273 3.83342 35405 ft 486 kts 97°
2026-02-21 06:05 46.65642 3.92906 35410 ft 487 kts 97°
2026-02-21 06:06 46.63984 4.02480 35415 ft 487 kts 97°
2026-02-21 06:06 46.62315 4.12039 35417 ft 487 kts 97°
2026-02-21 06:07 46.60648 4.21595 35419 ft 487 kts 97°
2026-02-21 06:07 46.58974 4.31150 35420 ft 487 kts 97°
2026-02-21 06:08 46.57290 4.40684 35415 ft 487 kts 97°
2026-02-21 06:08 46.55592 4.50223 35414 ft 487 kts 97°
2026-02-21 06:09 46.53889 4.59755 35409 ft 487 kts 97°
2026-02-21 06:09 46.52179 4.69289 35414 ft 488 kts 97°
2026-02-21 06:10 46.50476 4.78765 35414 ft 488 kts 97°
2026-02-21 06:10 46.48740 4.88339 35411 ft 488 kts 97°
2026-02-21 06:11 46.47015 4.97789 35413 ft 488 kts 97°
2026-02-21 06:11 46.45274 5.07286 35418 ft 487 kts 97°
2026-02-21 06:12 46.43808 5.15233 35421 ft 487 kts 97°
2026-02-21 06:12 46.42058 5.24698 35427 ft 486 kts 97°
2026-02-21 06:13 46.40307 5.34147 35434 ft 485 kts 97°
2026-02-21 06:13 46.37685 5.43270 35430 ft 500 kts 115°
2026-02-21 06:14 46.33404 5.51271 35431 ft 508 kts 125°
2026-02-21 06:14 46.28818 5.59036 35431 ft 507 kts 125°
2026-02-21 06:15 46.24239 5.66802 35436 ft 507 kts 125°
2026-02-21 06:15 46.19646 5.74551 35436 ft 507 kts 125°
2026-02-21 06:16 46.15046 5.82275 35439 ft 507 kts 125°
2026-02-21 06:16 46.10442 5.89978 35440 ft 507 kts 125°
2026-02-21 06:17 46.05840 5.97670 35439 ft 507 kts 124°
2026-02-21 06:17 46.01263 6.05306 35438 ft 507 kts 125°
2026-02-21 06:18 45.96649 6.12969 35435 ft 507 kts 125°
2026-02-21 06:18 45.92017 6.20629 35436 ft 507 kts 125°
2026-02-21 06:19 45.87389 6.28284 35435 ft 508 kts 125°
2026-02-21 06:19 45.82750 6.35930 35439 ft 508 kts 126°
2026-02-21 06:20 45.77374 6.42631 35434 ft 517 kts 141°
2026-02-21 06:20 45.71488 6.48594 35432 ft 518 kts 141°
2026-02-21 06:21 45.65614 6.54567 35434 ft 518 kts 141°
2026-02-21 06:21 45.59738 6.60542 35428 ft 518 kts 141°
2026-02-21 06:22 45.53870 6.66482 35421 ft 516 kts 141°
2026-02-21 06:22 45.48003 6.72392 35417 ft 516 kts 142°
2026-02-21 06:23 45.42145 6.78273 35402 ft 515 kts 142°
2026-02-21 06:23 45.36300 6.84131 35380 ft 513 kts 142°
2026-02-21 06:24 45.30464 6.89973 35334 ft 512 kts 142°
2026-02-21 06:24 45.24890 6.96123 35290 ft 507 kts 131°
2026-02-21 06:25 45.19846 7.03088 35251 ft 505 kts 131°
2026-02-21 06:25 45.14820 7.10006 35230 ft 506 kts 131°
2026-02-21 06:26 45.09959 7.17172 35235 ft 501 kts 122°
2026-02-21 06:26 45.05957 7.25172 35236 ft 497 kts 118°
2026-02-21 06:27 45.01978 7.33180 35238 ft 497 kts 119°
2026-02-21 06:27 44.97879 7.41069 35235 ft 502 kts 126°
2026-02-21 06:28 44.92972 7.48066 35231 ft 505 kts 130°
2026-02-21 06:28 44.88289 7.54615 35240 ft 506 kts 130°
2026-02-21 06:29 44.83291 7.61603 35260 ft 506 kts 131°
2026-02-21 06:29 44.78323 7.68521 35263 ft 507 kts 131°
2026-02-21 06:30 44.73294 7.75495 35267 ft 507 kts 131°
2026-02-21 06:30 44.68259 7.82455 35265 ft 507 kts 131°
2026-02-21 06:31 44.63226 7.89399 35262 ft 507 kts 131°
2026-02-21 06:31 44.58178 7.96344 35184 ft 508 kts 131°
2026-02-21 06:32 44.53137 8.03283 35194 ft 508 kts 131°
2026-02-21 06:32 44.48081 8.10211 35214 ft 509 kts 131°
2026-02-21 06:33 44.43010 8.17124 35238 ft 509 kts 132°
2026-02-21 06:33 44.37932 8.24035 35256 ft 510 kts 132°
2026-02-21 06:34 44.32845 8.30944 35246 ft 510 kts 132°
2026-02-21 06:34 44.27973 8.37550 35246 ft 511 kts 132°
2026-02-21 06:35 44.22869 8.44455 35241 ft 512 kts 132°
2026-02-21 06:35 44.17751 8.51360 35226 ft 512 kts 132°
2026-02-21 06:36 44.12623 8.58252 35226 ft 512 kts 133°
2026-02-21 06:36 44.07521 8.65093 35231 ft 513 kts 133°
2026-02-21 06:37 44.02380 8.71976 35237 ft 513 kts 133°
2026-02-21 06:37 43.97238 8.78844 35243 ft 513 kts 133°
2026-02-21 06:38 43.92082 8.85728 35233 ft 514 kts 133°
2026-02-21 06:38 43.86913 8.92598 35241 ft 514 kts 133°
2026-02-21 06:39 43.81742 8.99431 35242 ft 514 kts 133°
2026-02-21 06:39 43.76567 9.06247 35245 ft 514 kts 133°
2026-02-21 06:40 43.71398 9.13071 35240 ft 513 kts 133°
2026-02-21 06:40 43.66234 9.19876 35246 ft 513 kts 133°
2026-02-21 06:41 43.61065 9.26669 35251 ft 513 kts 133°
2026-02-21 06:41 43.56120 9.33140 35244 ft 513 kts 133°
2026-02-21 06:42 43.50979 9.39856 35246 ft 512 kts 133°
2026-02-21 06:42 43.45801 9.46592 35257 ft 512 kts 134°
2026-02-21 06:43 43.40620 9.53300 35260 ft 511 kts 134°
2026-02-21 06:43 43.35446 9.60008 35250 ft 511 kts 134°
2026-02-21 06:44 43.30277 9.66699 35251 ft 510 kts 134°
2026-02-21 06:44 43.25106 9.73359 35244 ft 510 kts 134°
2026-02-21 06:45 43.19932 9.80009 35248 ft 509 kts 134°
2026-02-21 06:45 43.14759 9.86650 35258 ft 509 kts 134°
2026-02-21 06:46 43.09591 9.93268 35248 ft 508 kts 134°
2026-02-21 06:46 43.04424 9.99860 35253 ft 508 kts 134°
2026-02-21 06:47 42.99263 10.06439 35255 ft 507 kts 134°
2026-02-21 06:47 42.94101 10.13000 35244 ft 507 kts 134°
2026-02-21 06:48 42.88973 10.19495 35246 ft 506 kts 134°
2026-02-21 06:48 42.83819 10.26018 35249 ft 505 kts 134°
2026-02-21 06:49 42.78715 10.32576 35249 ft 502 kts 129°
2026-02-21 06:49 42.74837 10.40296 35249 ft 489 kts 109°
2026-02-21 06:50 42.72845 10.48938 35248 ft 472 kts 91°
2026-02-21 06:50 42.72374 10.57735 35244 ft 467 kts 88°
2026-02-21 06:51 42.70821 10.66434 35231 ft 482 kts 107°
2026-02-21 06:51 42.67509 10.74459 35225 ft 489 kts 117°
2026-02-21 06:52 42.63913 10.82313 35219 ft 490 kts 117°
2026-02-21 06:52 42.60309 10.90150 35221 ft 489 kts 117°
2026-02-21 06:53 42.56693 10.97987 35223 ft 489 kts 118°
2026-02-21 06:53 42.53075 11.05803 35235 ft 489 kts 118°
2026-02-21 06:54 42.49451 11.13614 34752 ft 490 kts 118°
2026-02-21 06:54 42.47636 11.17525 33960 ft 490 kts 118°
2026-02-21 06:54 42.45834 11.21422 33343 ft 485 kts 116°
2026-02-21 06:55 42.44408 11.25417 32767 ft 472 kts 104°
2026-02-21 06:55 42.43579 11.29640 32192 ft 459 kts 93°
2026-02-21 06:55 42.43109 11.33882 31607 ft 454 kts 92°
2026-02-21 06:55 42.42648 11.38086 31042 ft 450 kts 92°
2026-02-21 06:56 42.42183 11.42265 30513 ft 447 kts 92°
2026-02-21 06:56 42.41717 11.46402 29939 ft 443 kts 92°
2026-02-21 06:56 42.41250 11.50500 29361 ft 439 kts 93°
2026-02-21 06:56 42.40695 11.54533 29048 ft 434 kts 101°
2026-02-21 06:57 42.39555 11.58277 28897 ft 429 kts 116°
2026-02-21 06:57 42.37812 11.61523 28599 ft 427 kts 131°
2026-02-21 06:57 42.36411 11.63381 28316 ft 425 kts 134°
2026-02-21 06:57 42.34283 11.66109 27881 ft 421 kts 134°
2026-02-21 06:58 42.32160 11.68816 27435 ft 417 kts 135°
2026-02-21 06:58 42.27967 11.74149 26588 ft 411 kts 135°
2026-02-21 06:58 42.25899 11.76782 26177 ft 407 kts 135°
2026-02-21 06:59 42.23848 11.79397 25767 ft 403 kts 135°
2026-02-21 06:59 42.21819 11.81986 25363 ft 400 kts 135°
2026-02-21 06:59 42.19804 11.84551 24958 ft 397 kts 135°
2026-02-21 06:59 42.17800 11.87095 24556 ft 394 kts 135°
2026-02-21 07:00 42.15812 11.89615 24165 ft 391 kts 135°
2026-02-21 07:00 42.13914 11.92208 23766 ft 386 kts 127°
2026-02-21 07:00 42.12469 11.95208 23292 ft 379 kts 113°
2026-02-21 07:00 42.11344 11.98405 22833 ft 376 kts 112°
2026-02-21 07:01 42.10228 12.01577 22396 ft 374 kts 112°
2026-02-21 07:01 42.09113 12.04721 21972 ft 371 kts 112°
2026-02-21 07:01 42.08002 12.07839 21549 ft 369 kts 113°
2026-02-21 07:01 42.06897 12.10945 21140 ft 366 kts 112°
2026-02-21 07:02 42.05802 12.14029 20731 ft 364 kts 112°
2026-02-21 07:02 42.04713 12.17094 20335 ft 362 kts 113°
2026-02-21 07:02 42.03632 12.20134 19946 ft 360 kts 113°
2026-02-21 07:02 42.02551 12.23166 19564 ft 358 kts 113°
2026-02-21 07:03 42.01476 12.26175 19194 ft 356 kts 113°
2026-02-21 07:03 42.00408 12.29161 18904 ft 351 kts 113°
2026-02-21 07:03 41.99244 12.31987 18766 ft 343 kts 126°
2026-02-21 07:03 41.97569 12.34214 18639 ft 335 kts 145°
2026-02-21 07:04 41.95518 12.35619 18365 ft 330 kts 163°
2026-02-21 07:04 41.93332 12.36529 18021 ft 328 kts 164°
2026-02-21 07:04 41.91152 12.37429 17669 ft 327 kts 164°
2026-02-21 07:04 41.88983 12.38324 17323 ft 325 kts 164°
2026-02-21 07:05 41.86826 12.39217 16983 ft 324 kts 163°
2026-02-21 07:05 41.84692 12.40103 16790 ft 318 kts 163°
2026-02-21 07:05 41.82604 12.40971 16596 ft 312 kts 163°
2026-02-21 07:05 41.80567 12.41821 16319 ft 309 kts 163°
2026-02-21 07:06 41.78518 12.42676 16010 ft 308 kts 163°
2026-02-21 07:06 41.76475 12.43528 15708 ft 307 kts 163°
2026-02-21 07:06 41.74448 12.44376 15425 ft 305 kts 163°
2026-02-21 07:06 41.72422 12.45222 15145 ft 304 kts 163°
2026-02-21 07:07 41.70410 12.46057 14679 ft 301 kts 163°
2026-02-21 07:07 41.68410 12.46884 14179 ft 300 kts 162°
2026-02-21 07:07 41.66424 12.47705 13658 ft 298 kts 162°
2026-02-21 07:07 41.64447 12.48522 13108 ft 296 kts 162°
2026-02-21 07:08 41.62482 12.49332 12554 ft 295 kts 162°
2026-02-21 07:08 41.60522 12.50138 12012 ft 294 kts 162°
2026-02-21 07:08 41.58570 12.50940 11474 ft 293 kts 162°
2026-02-21 07:08 41.56622 12.51740 10939 ft 292 kts 162°
2026-02-21 07:09 41.54681 12.52535 10402 ft 292 kts 161°
2026-02-21 07:09 41.52742 12.53326 9841 ft 291 kts 161°
2026-02-21 07:09 41.50812 12.54113 9286 ft 288 kts 161°
2026-02-21 07:09 41.48908 12.54895 8765 ft 284 kts 161°
2026-02-21 07:10 41.47287 12.55564 8331 ft 279 kts 162°
2026-02-21 07:10 41.45394 12.55921 7816 ft 273 kts 188°
2026-02-21 07:10 41.43667 12.55071 7290 ft 262 kts 220°
2026-02-21 07:10 41.42516 12.53290 6744 ft 250 kts 249°
2026-02-21 07:11 41.41959 12.51136 6220 ft 242 kts 257°
2026-02-21 07:11 41.41466 12.49014 6058 ft 241 kts 257°
2026-02-21 07:11 41.41115 12.46861 5858 ft 233 kts 277°
2026-02-21 07:11 41.41564 12.44886 5691 ft 219 kts 309°
2026-02-21 07:12 41.42657 12.43618 5538 ft 204 kts 338°
2026-02-21 07:12 41.43985 12.43020 5281 ft 201 kts 344°
2026-02-21 07:12 41.45284 12.42487 5087 ft 195 kts 344°
2026-02-21 07:12 41.46569 12.41962 4927 ft 192 kts 344°
2026-02-21 07:13 41.47847 12.41440 4779 ft 192 kts 343°
2026-02-21 07:13 41.49123 12.40917 4647 ft 192 kts 344°
2026-02-21 07:13 41.50396 12.40397 4506 ft 191 kts 343°
2026-02-21 07:13 41.51666 12.39879 4382 ft 191 kts 343°
2026-02-21 07:14 41.52930 12.39357 4250 ft 190 kts 343°
2026-02-21 07:14 41.54147 12.38668 4117 ft 191 kts 328°
2026-02-21 07:14 41.55152 12.37501 3992 ft 193 kts 311°
2026-02-21 07:14 41.55946 12.36057 3854 ft 193 kts 308°
2026-02-21 07:15 41.56735 12.34609 3720 ft 193 kts 308°
2026-02-21 07:15 41.57575 12.33231 3583 ft 191 kts 319°
2026-02-21 07:15 41.58663 12.32238 3466 ft 189 kts 336°
2026-02-21 07:15 41.59905 12.31671 3315 ft 189 kts 343°
2026-02-21 07:16 41.61161 12.31159 3196 ft 189 kts 343°
2026-02-21 07:16 41.62416 12.30641 3061 ft 189 kts 343°
2026-02-21 07:16 41.63668 12.30122 2930 ft 187 kts 342°
2026-02-21 07:16 41.64859 12.29625 2838 ft 176 kts 342°
2026-02-21 07:17 41.65995 12.29142 2681 ft 167 kts 342°
2026-02-21 07:17 41.67080 12.28687 2585 ft 161 kts 342°
2026-02-21 07:17 41.68137 12.28244 2509 ft 158 kts 342°
2026-02-21 07:17 41.69185 12.27807 2505 ft 158 kts 343°
2026-02-21 07:18 41.70236 12.27368 2509 ft 157 kts 343°
2026-02-21 07:18 41.71280 12.26932 2512 ft 158 kts 342°
2026-02-21 07:18 41.72323 12.26497 2510 ft 157 kts 343°
2026-02-21 07:18 41.73368 12.26040 2509 ft 158 kts 336°
2026-02-21 07:19 41.74112 12.25002 2517 ft 161 kts 290°
2026-02-21 07:19 41.74051 12.23526 2507 ft 166 kts 244°
2026-02-21 07:19 41.73194 12.22514 2504 ft 171 kts 198°
2026-02-21 07:19 41.72011 12.22360 2511 ft 172 kts 178°
2026-02-21 07:20 41.70813 12.22474 2506 ft 173 kts 175°
2026-02-21 07:20 41.69615 12.22637 2508 ft 173 kts 174°
2026-02-21 07:20 41.68416 12.22810 2512 ft 173 kts 174°
2026-02-21 07:20 41.67225 12.23038 2512 ft 173 kts 167°
2026-02-21 07:21 41.66051 12.23431 2510 ft 174 kts 165°
2026-02-21 07:21 41.65002 12.24170 2506 ft 172 kts 128°
2026-02-21 07:21 41.64607 12.25608 2511 ft 166 kts 82°
2026-02-21 07:21 41.65077 12.26937 2511 ft 159 kts 36°
2026-02-21 07:22 41.66046 12.27624 2510 ft 159 kts 20°
2026-02-21 07:22 41.67074 12.28167 2509 ft 159 kts 17°
2026-02-21 07:22 41.68136 12.28350 2477 ft 157 kts 343°
2026-02-21 07:22 41.69133 12.27756 2237 ft 157 kts 341°
2026-02-21 07:23 41.70177 12.27354 2013 ft 156 kts 344°
2026-02-21 07:23 41.70882 12.27077 1844 ft 156 kts 344°
2026-02-21 07:23 41.71738 12.26730 1631 ft 155 kts 343°
2026-02-21 07:23 41.72759 12.26310 1389 ft 150 kts 344°
2026-02-21 07:24 41.73729 12.25907 1149 ft 143 kts 344°
2026-02-21 07:24 41.74667 12.25516 944 ft 140 kts 345°
2026-02-21 07:24 41.75582 12.25134 698 ft 138 kts 344°
2026-02-21 07:24 41.76509 12.24748 473 ft 139 kts 345°
2026-02-21 07:25 41.77436 12.24360 251 ft 140 kts 344°
2026-02-21 07:25 41.78371 12.23969 38 ft 140 kts 345°
2026-02-21 07:25 41.79219 12.23616 16 ft 101 kts 343°
2026-02-21 07:25 41.79594 12.23500 13 ft 27 kts 24°
2026-02-21 07:26 41.79715 12.23535 15 ft 18 kts
2026-02-21 07:26 41.79808 12.23619 15 ft 17 kts 66°
2026-02-21 07:26 41.79757 12.23717 16 ft 14 kts 163°
2026-02-21 07:26 41.79661 12.23757 15 ft 15 kts 162°
2026-02-21 07:27 41.79563 12.23799 15 ft 15 kts 162°
2026-02-21 07:27 41.79463 12.23838 15 ft 16 kts 164°
2026-02-21 07:27 41.79356 12.23881 15 ft 17 kts 163°
2026-02-21 07:27 41.79342 12.23985 15 ft 11 kts 67°
2026-02-21 07:28 41.79357 12.24092 15 ft 13 kts 76°
2026-02-21 07:28 41.79389 12.24204 15 ft 9 kts 68°
2026-02-21 07:28 41.79435 12.24216 15 ft 7 kts 338°
2026-02-21 07:28 41.79476 12.24196 15 ft 6 kts 339°
2026-02-21 07:29 41.79482 12.24193 17 ft 0 kts 339°
2026-02-21 07:29 41.79483 12.24192 17 ft 0 kts 339°
2026-02-21 07:29 41.79484 12.24192 17 ft 0 kts 339°